Mayport NS, FL

3:21 PM EDT on April 25, 2017 (GMT -0400)
Mayport Naval Station / Adm. David L. McDonald Field

Weather History for KNRB - May, 2014

Change the Weather History Date:

Monday, May 12, 2014

  Actual Average Record
Temperature  
Mean Temperature 76 °F -  
Max Temperature 84 °F 80 °F 91 °F (2000)
Min Temperature 69 °F 66 °F 57 °F (2006)
Cooling Degree Days 10    
Growing Degree Days 26 (Base 50)    
Moisture  
Dew Point 68 °F    
Average Humidity 81    
Maximum Humidity 93    
Minimum Humidity 58    
Precipitation  
Precipitation 0.00 in - - ()
Sea Level Pressure  
Sea Level Pressure 30.15 in    
Wind  
Wind Speed 4 mph (East)    
Max Wind Speed 13 mph    
Max Gust Speed -    
Visibility 7 miles    
Events Fog    
Averages and records for this station are not official NWS values.
T = Trace of Precipitation, MM = Missing Value Source: NWS Daily Summary

Daily Weather History Graph

Daily Weather History Graph

Search for Another Location

Airport or City:

Trip Planner

Search our weather history database for the weather conditions in past years. The results will help you decide how hot, cold, wet, or windy it might be!

Date:

Astronomy

May. 12, 2014 Rise Set
Actual Time 6:33 AM EDT 8:10 PM EDT
Civil Twilight 6:07 AM EDT 8:37 PM EDT
Nautical Twilight 5:36 AM EDT 9:08 PM EDT
Astronomical Twilight 5:03 AM EDT 9:41 PM EDT
Moon 6:15 PM EDT (5/12) 5:01 AM EDT (5/12)
Length of Visible Light 14h 29m
Length of Day
13h 37m
Waxing Gibbous, 95% of the Moon is Illuminated
May 12
Waxing Gibbous
May 14
Full
May 21
Last Quarter
May 28
New
Jun 5
First Quarter

Hourly Weather History & Observations

Time (EDT) Temp. Heat Index Dew Point Humidity Pressure Visibility Wind Dir Wind Speed Gust Speed Precip Events Conditions
12:52 AM 71.1 °F - 66.9 °F 87% 30.14 in 10.0 mi Calm Calm - N/A   Clear
1:52 AM 71.1 °F - 68.0 °F 90% 30.13 in 10.0 mi SE 4.6 mph - N/A   Clear
2:52 AM 71.1 °F - 68.0 °F 90% 30.13 in 8.0 mi Calm Calm - N/A   Clear
3:52 AM 71.1 °F - 69.1 °F 93% 30.13 in 5.0 mi Calm Calm - N/A   Clear
4:05 AM 70.0 °F - 68.0 °F 93% 30.13 in 1.2 mi Calm Calm - N/A   Partly Cloudy
4:14 AM 69.1 °F - 66.0 °F 90% 30.13 in 0.8 mi Calm Calm - N/A   Partly Cloudy
4:18 AM 69.1 °F - 66.0 °F 90% 30.13 in 2.0 mi Calm Calm - N/A   Partly Cloudy
4:32 AM 69.1 °F - 66.9 °F 93% 30.13 in 5.0 mi Calm Calm - N/A   Partly Cloudy
4:52 AM 70.0 °F - 66.9 °F 90% 30.13 in 5.0 mi Calm Calm - N/A   Clear
5:29 AM 71.1 °F - 69.1 °F 93% 30.13 in 2.5 mi NNE 3.5 mph - N/A   Mostly Cloudy
5:38 AM 71.1 °F - 69.1 °F 93% 30.13 in 0.8 mi NE 3.5 mph - N/A   Mist
5:44 AM 71.1 °F - 68.0 °F 90% 30.14 in 0.2 mi NE 4.6 mph - N/A Fog Fog
5:52 AM 70.0 °F - 68.0 °F 93% 30.14 in 0.2 mi NE 4.6 mph - N/A Fog Fog
6:04 AM 71.1 °F - 69.1 °F 93% 30.14 in 0.2 mi NE 5.8 mph - N/A Fog Fog
6:43 AM 70.0 °F - 68.0 °F 93% 30.15 in 3.0 mi East 4.6 mph - N/A   Scattered Clouds
6:52 AM 71.1 °F - 69.1 °F 93% 30.15 in 3.0 mi East 3.5 mph - N/A   Scattered Clouds
7:52 AM 73.9 °F - 72.0 °F 93% 30.17 in 6.0 mi SSE 3.5 mph - N/A   Scattered Clouds
8:52 AM 78.1 °F - 70.0 °F 76% 30.18 in 10.0 mi SE 9.2 mph - N/A   Scattered Clouds
9:52 AM 81.0 °F 83.8 °F 68.0 °F 65% 30.19 in 10.0 mi ESE 8.1 mph - N/A   Partly Cloudy
10:52 AM 82.0 °F 84.9 °F 68.0 °F 62% 30.21 in 10.0 mi ESE 9.2 mph - N/A   Scattered Clouds
11:52 AM 82.0 °F 85.9 °F 70.0 °F 67% 30.21 in 10.0 mi ENE 9.2 mph - N/A   Scattered Clouds
12:52 PM 82.9 °F 87.0 °F 70.0 °F 65% 30.21 in 10.0 mi ENE 10.4 mph - N/A   Scattered Clouds
1:52 PM 82.9 °F 87.5 °F 71.1 °F 67% 30.19 in 10.0 mi East 10.4 mph - N/A   Scattered Clouds
2:52 PM 82.9 °F 85.8 °F 68.0 °F 60% 30.19 in 10.0 mi East 9.2 mph - N/A   Mostly Cloudy
3:52 PM 82.0 °F 84.5 °F 66.9 °F 60% 30.18 in 10.0 mi ESE 11.5 mph - N/A   Mostly Cloudy
4:52 PM 82.0 °F 84.1 °F 66.0 °F 58% 30.16 in 10.0 mi ESE 12.7 mph - N/A   Scattered Clouds
5:52 PM 81.0 °F 83.0 °F 66.0 °F 60% 30.15 in 10.0 mi East 10.4 mph - N/A   Mostly Cloudy
6:52 PM 79.0 °F - 66.9 °F 66% 30.14 in 10.0 mi East 10.4 mph - N/A   Scattered Clouds
7:52 PM 77.0 °F - 68.0 °F 74% 30.14 in 10.0 mi ESE 10.4 mph - N/A   Scattered Clouds
8:52 PM 75.9 °F - 69.1 °F 79% 30.14 in 10.0 mi ESE 6.9 mph - N/A   Mostly Cloudy
9:52 PM 75.9 °F - 69.1 °F 79% 30.15 in 10.0 mi ESE 6.9 mph - N/A   Mostly Cloudy
10:52 PM 75.0 °F - 69.1 °F 82% 30.16 in 10.0 mi ESE 5.8 mph - N/A   Scattered Clouds
11:52 PM 75.0 °F - 70.0 °F 84% 30.14 in 10.0 mi East 8.1 mph - N/A   Scattered Clouds